This is the latest recevied weather packets stored in our database for station/object W4FXD. If no packets are shown the sender has not sent any weather packets the latest 10 day(s).
| Time | Temp. | Humidity | Pressure | Rain* | Wind** | Luminosity | Snow |
|---|---|---|---|---|---|---|---|
| 1777686025 | 15.56° C | 64% | 1014.2 hPa | 0 mm | - | 0 W/m² | - |
| 1777685721 | 15.56° C | 64% | 1014.2 hPa | 0 mm | - | 0 W/m² | - |
| 1777685417 | 15.56° C | 64% | 1014.1 hPa | 0 mm | - | 0 W/m² | - |
| 1777685115 | 15.56° C | 64% | 1014 hPa | 0 mm | - | 0 W/m² | - |
| 1777684812 | 15.56° C | 64% | 1014 hPa | 0 mm | - | 0 W/m² | - |
| 1777684508 | 15.56° C | 64% | 1013.9 hPa | 0 mm | - | 0 W/m² | - |
| 1777684205 | 16.11° C | 62% | 1013.6 hPa | 0 mm | - | 0 W/m² | - |
| 1777683902 | 16.11° C | 61% | 1013.5 hPa | 0 mm | - | 0 W/m² | - |
| 1777683598 | 16.11° C | 61% | 1013.3 hPa | 0 mm | - | 0 W/m² | - |
| 1777683296 | 16.11° C | 61% | 1013.4 hPa | 0 mm | - | 0 W/m² | - |
| 1777682994 | 16.11° C | 60% | 1013.2 hPa | 0 mm | - | 0 W/m² | - |
| 1777682689 | 16.11° C | 59% | 1012.9 hPa | 0 mm | - | 0 W/m² | - |
| 1777682387 | 16.11° C | 59% | 1013.1 hPa | 0 mm | - | 0 W/m² | - |
| 1777682084 | 16.11° C | 62% | 1012.7 hPa | 0 mm | - | 0 W/m² | - |
| 1777681780 | 16.11° C | 58% | 1012.7 hPa | 0 mm | - | 0 W/m² | - |
| 1777681477 | 16.67° C | 57% | 1012.8 hPa | 0 mm | - | 0 W/m² | - |
| 1777681175 | 16.67° C | 57% | 1012.7 hPa | 0 mm | - | 0 W/m² | - |
| 1777680872 | 16.67° C | 56% | 1012.7 hPa | 0 mm | - | 2 W/m² | - |
| 1777680570 | 16.67° C | 55% | 1012.6 hPa | 0 mm | - | 3 W/m² | - |
| 1777680268 | 17.22° C | 55% | 1012.7 hPa | 0 mm | - | 6 W/m² | - |
| 1777679964 | 17.22° C | 56% | 1012.4 hPa | 0 mm | - | 12 W/m² | - |
| 1777679660 | 17.22° C | 54% | 1012.4 hPa | 0 mm | - | 15 W/m² | - |
| 1777679355 | 17.22° C | 53% | 1012.3 hPa | 0 mm | - | 18 W/m² | - |
| 1777679052 | 17.78° C | 53% | 1012.4 hPa | 0 mm | - | 19 W/m² | - |
| 1777678751 | 17.78° C | 54% | 1012.3 hPa | 0 mm | - | 23 W/m² | - |
* Rain latest hour (hover to see other rain measurements)
** Current wind speed in m/s (hover to see current wind gust speed)